Location: Grange Rosano
(44.4500°N, 6.9667°E)
Time: 08:36:33
(UTC+00:00)

Cosmos 1758 - Pass Details

Date: 26 May 2022
Orbit: 538 x 557 km, 82.5° (Epoch: 01 July)

Event Time Altitude Azimuth Distance (km) Brightness Sun altitude
Rises 23:59:41 0° 345° (NNW) 2,710 8.0 -24.1°
Reaches altitude 10° 00:01:54 10° 339° (NNW) 1,815 6.8 -24.0°
Enters shadow 00:05:05 40° 293° (WNW) 807 4.2 -23.9°
